This demonstration page uses our WeatherBlox Daily Observations layout. Learn more.

40.92945, -100.16068

Hourly Observations for December 7, 2017

Temp ( °F °C ) Dew Point ( °F °C ) Humidity (%) Winds ( mph kmh ) Pressure ( in mb ) Visibility ( mi km ) Precip ( " mm )
12:15 am 00:15 Clear 13 -10.4 8 -13.5 78 78 NW 9 15 30.71 1040 10 16.09344 0 0
12:35 am 00:35 Clear 13 -10.5 8 -13.5 79 79 WNW 10 17 30.71 1040 10 16.09344 0 0
12:55 am 00:55 Clear 13 -10.7 8 -13.6 79 79 WNW 9 15 30.71 1040 10 16.09344 0 0
1:15 am 01:15 Clear 12 -11 7 -13.9 79 79 WNW 7 11 30.68 1039 10 16.09344 0 0
1:35 am 01:35 Clear 11 -11.7 6 -14.3 81 81 W 7 11 30.68 1039 10 16.09344 0 0
1:55 am 01:55 Clear 10 -12 6 -14.7 81 81 NW 6 9 30.68 1039 10 16.09344 0 0
2:15 am 02:15 Clear 10 -12 6 -14.6 81 81 NNW 7 11 30.68 1039 10 16.09344 0 0
2:35 am 02:35 Clear 10 -12.1 6 -14.6 82 82 W 6 9 30.68 1039 10 16.09344 0 0
2:55 am 02:55 Clear 10 -12.1 6 -14.7 81 81 WNW 9 15 30.68 1039 10 16.09344 0 0
3:15 am 03:15 Clear 10 -12 6 -14.7 81 81 WNW 10 17 30.68 1039 10 16.09344 0 0
3:35 am 03:35 Clear 10 -12.3 5 -15.1 80 80 WNW 9 15 30.68 1039 10 16.09344 0 0
3:55 am 03:55 Clear 10 -12.5 5 -15.2 80 80 WNW 9 15 30.71 1040 10 16.09344 0 0
4:15 am 04:15 Clear 9 -12.7 4 -15.5 80 80 WNW 8 13 30.71 1040 10 16.09344 0 0
4:35 am 04:35 Clear 8 -13.1 4 -15.8 80 80 WNW 8 13 30.68 1039 10 16.09344 0 0
4:55 am 04:55 Clear 8 -13.2 3 -16 80 80 WNW 12 19 30.68 1039 10 16.09344 0 0
5:15 am 05:15 Clear 8 -13.2 3 -16.1 79 79 WNW 10 17 30.68 1039 10 16.09344 0 0
5:35 am 05:35 Clear 8 -13.3 2 -16.4 78 78 WNW 12 19 30.68 1039 10 16.09344 0 0
5:55 am 05:55 Clear 7 -13.7 2 -16.8 78 78 WNW 10 17 30.68 1039 10 16.09344 0 0
6:15 am 06:15 Clear 7 -14 1 -17 78 78 WNW 12 19 30.68 1039 10 16.09344 0 0
6:35 am 06:35 Clear 6 -14.2 1 -17.3 78 78 WNW 12 19 30.68 1039 10 16.09344 0 0
6:55 am 06:55 Clear 6 -14.5 1 -17.5 78 78 WNW 10 17 30.68 1039 10 16.09344 0 0
7:15 am 07:15 Clear 6 -14.5 1 -17.5 78 78 WNW 8 13 30.68 1039 10 16.09344 0 0
7:35 am 07:35 Clear 5 -14.8 0 -17.8 78 78 WNW 7 11 30.68 1039 10 16.09344 0 0
7:55 am 07:55 Sunny 5 -14.8 0 -17.9 77 77 WNW 8 13 30.68 1039 10 16.09344 0 0
8:15 am 08:15 Sunny 6 -14.7 0 -17.9 77 77 NW 3 6 30.68 1039 10 16.09344 0 0
8:35 am 08:35 Sunny 8 -13.6 2 -16.5 79 79 WNW 8 13 30.68 1039 10 16.09344 0 0
8:55 am 08:55 Sunny 10 -12.2 4 -15.4 77 77 W 9 15 30.65 1038 10 16.09344 0 0
9:15 am 09:15 Sunny 12 -11.1 6 -14.5 76 76 WNW 9 15 30.65 1038 10 16.09344 0 0
9:35 am 09:35 Sunny 14 -10.1 7 -13.7 75 75 NW 10 17 30.65 1038 10 16.09344 0 0
9:55 am 09:55 Sunny 17 -8.3 11 -11.8 76 76 NW 16 26 30.62 1037 10 16.09344 0 0
10:15 am 10:15 Sunny 20 -6.6 12 -11.1 71 71 NW 15 24 30.56 1035 10 16.09344 0 0
10:35 am 10:35 Sunny 22 -5.8 12 -11.2 66 66 NW 13 20 30.56 1035 10 16.09344 0 0
10:55 am 10:55 Sunny 23 -5 13 -10.8 64 64 NW 14 22 30.56 1035 10 16.09344 0 0
11:15 am 11:15 Sunny 25 -4.1 13 -10.8 60 60 NW 15 24 30.53 1034 10 16.09344 0 0
11:35 am 11:35 Sunny 25 -4 12 -11 59 59 NW 15 24 30.53 1034 10 16.09344 0 0
11:55 am 11:55 Sunny 26 -3.2 13 -10.7 57 57 NW 15 24 30.5 1033 10 16.09344 0 0
12:15 pm 12:15 Sunny 27 -2.7 12 -10.9 54 54 NW 15 24 30.5 1033 10 16.09344 0 0
12:35 pm 12:35 Sunny 28 -2.2 12 -10.9 52 52 NW 13 20 30.5 1033 10 16.09344 0 0
12:55 pm 12:55 Sunny 29 -1.6 12 -11.1 49 49 NW 13 20 30.45 1031 10 16.09344 0 0
1:15 pm 13:15 Sunny 30 -1.2 13 -10.8 48 48 NW 13 20 30.45 1031 10 16.09344 0 0
1:35 pm 13:35 Sunny 30 -1.3 11 -11.5 46 46 NW 14 22 30.42 1030 10 16.09344 0 0
1:55 pm 13:55 Sunny 31 -0.4 11 -11.8 42 42 WNW 13 20 30.42 1030 10 16.09344 0 0
2:15 pm 14:15 Sunny 32 -0.1 11 -11.4 43 43 WNW 12 19 30.42 1030 10 16.09344 0 0
2:35 pm 14:35 Sunny 32 0 12 -11.3 43 43 W 10 17 30.36 1028 10 16.09344 0 0
2:55 pm 14:55 Sunny 32 -0.1 11 -11.7 42 42 W 8 13 30.39 1029 10 16.09344 0 0
3:15 pm 15:15 Sunny 32 0 11 -11.9 41 41 W 8 13 30.36 1028 10 16.09344 0 0
3:35 pm 15:35 Sunny 32 0 11 -11.4 42 42 WNW 8 13 30.36 1028 10 16.09344 0 0
3:55 pm 15:55 Sunny 32 0 13 -10.8 44 44 W 12 19 30.33 1027 10 16.09344 0 0
4:15 pm 16:15 Sunny 32 0.1 13 -10.7 44 44 W 10 17 30.33 1027 10 16.09344 0 0
4:35 pm 16:35 Sunny 32 0 12 -11.2 43 43 W 8 13 30.33 1027 10 16.09344 0 0
4:55 pm 16:55 Sunny 30 -0.9 12 -11.1 46 46 W 8 13 30.33 1027 10 16.09344 0 0
5:15 pm 17:15 Clear 27 -2.7 11 -11.8 50 50 W 8 13 30.33 1027 10 16.09344 0 0
5:35 pm 17:35 Clear 26 -3.5 10 -12 52 52 WSW 5 7 30.33 1027 10 16.09344 0 0
5:55 pm 17:55 Clear 25 -3.7 10 -12.2 52 52 SSW 7 11 30.36 1028 10 16.09344 0 0
6:15 pm 18:15 Clear 26 -3.6 11 -11.7 54 54 SW 7 11 30.3 1026 10 16.09344 0 0
6:35 pm 18:35 Mostly Cloudy 26 -3.1 13 -10.8 56 56 SW 7 11 30.3 1026 10 16.09344 0 0
6:55 pm 18:55 Cloudy 28 -2.4 13 -10.5 54 54 SW 6 9 30.3 1026 10 16.09344 0 0
7:15 pm 19:15 Mostly Cloudy 28 -2.4 13 -10.3 55 55 SW 6 9 30.27 1025 10 16.09344 0 0
7:35 pm 19:35 Partly Cloudy 26 -3.5 13 -10.4 59 59 SW 7 11 30.27 1025 10 16.09344 0 0
7:55 pm 19:55 Clear 24 -4.2 13 -10.5 62 62 SW 8 13 30.3 1026 10 16.09344 0 0
8:15 pm 20:15 Mostly Cloudy 28 -2.3 15 -9.2 60 60 WSW 7 11 30.24 1024 10 16.09344 0 0
8:35 pm 20:35 Cloudy 28 -2.1 15 -9.7 56 56 SW 7 11 30.24 1024 10 16.09344 0 0
8:55 pm 20:55 Partly Cloudy 26 -3.1 14 -10.2 58 58 SW 6 9 30.24 1024 10 16.09344 0 0
9:15 pm 21:15 Clear 26 -3.6 14 -10.1 61 61 WSW 7 11 30.24 1024 10 16.09344 0 0
9:35 pm 21:35 Clear 25 -4 14 -10.1 63 63 WSW 6 9 30.24 1024 10 16.09344 0 0
9:55 pm 21:55 Clear 25 -4 14 -10 63 63 WSW 5 7 30.24 1024 10 16.09344 0 0
10:15 pm 22:15 Clear 24 -4.3 14 -10 65 65 WNW 3 6 30.21 1023 10 16.09344 0 0
10:35 pm 22:35 Clear 22 -5.3 14 -10.1 69 69 WNW 6 9 30.24 1024 10 16.09344 0 0
10:55 pm 22:55 Clear 23 -5 14 -9.8 69 69 W 5 7 30.24 1024 10 16.09344 0 0
11:15 pm 23:15 Clear 23 -5 15 -9.6 70 70 NW 5 7 30.24 1024 10 16.09344 0 0
11:35 pm 23:35 Mostly Cloudy 24 -4.2 16 -9.1 69 69 WNW 6 9 30.21 1023 10 16.09344 0 0
11:55 pm 23:55 Cloudy 27 -2.9 17 -8.6 65 65 WNW 6 9 30.21 1023 10 16.09344 0 0

Powered by AerisWeather